DELTA 1 DEB, 10471

Orbit data source: Space-Track

DELTA 1 DEB, 10471 is space debris in LEO originally from a launch on Thu, 14 Jul 1977 UTC launched from the Air Force Eastern Test Range (AFETR). Debris objects in space refer to the collection of defunct objects orbiting the Earth. Examples of debris include non-operational satellites, rocket bodies, and fragments generated from explosions, collisions, or faulty payload assembly.

Loading next visibility...
Identifier
10471, 1977-065ED
Orbit
LEO
Country
Flag of USUS
Related business
Manufacturer
Unknown
Mission
Spacecraft
Bus & Motor
Unknown
Mass
Unknown
Launch date (UTC)
1977-07-14 (48 years ago)
Launch vehicle
Unknown
Launch site
Air Force Eastern Test Range (AFETR)
Object type
Payload
Rocket body
Debris
Shape & HBR
Unknown shape, 0.5 m
Radar Cross Section
Medium (>0.1 m² and <1 m²)

Expand to show TLE details & history
Last TLE update: 12 hours ago

TLE from 12 hours ago
0 DELTA 1 DEB
1 10471U 77065ED  25350.34997769  .00000383  00000-0  89176-4 0  9996
2 10471  29.0594  47.0923 0844319 101.6943 267.9491 13.25702495329091
Epoch: 2025-12-16T08:23Z
TLE epoch observation values (Epoch: 2025-12-16T08:23:58.072Z)
Latitude
Longitude
-164.13512°
Altitude
1,237.434 km
Speed
7.202 km/s
True Right ascension
03h 08m 22s
True Declination
0° 00' 00"
Sunlit
Object was in full shadow at epoch
Visualization orbit readout
Latitude
Unknown
Longitude
Unknown
Altitude
Unknown
Speed
Unknown
Apparent Right ascension
Unknown
Apparent Declination
Unknown
Sunlit
N/A
Visualization observer readout
Local Sidereal Time
19:05:31
Azimuth
Unknown
Elevation
Unknown
Doppler factor
Unknown
Orbital elements
Apogee altitude
1,803.873 km
Perigee altitude
529.8 km
Semi-major axis
7,544.974 km
Eccentricity
0.08443
Inclination
29.0594°
RAAN
47.0923°
Arg. of periapsis
101.6943°
True anomaly
258.36141°
Mean anomaly
267.9491°
Eccentric anomaly
263.14608°
Mean motion
3.31174 °/min
Orbital period
108.7 mins
BSTAR
0.000089176
Loading maneuver chart data...
Computing Atmospheric mass density...
Loading historical data...
Loading historical data...
Loading historical data...
Loading historical data...
Loading historical data...
Loading historical data...
Loading historical data...

Documentation

Showing up to 5 results
|